Location: Central Coast NSW, Australia
(33.2407°S, 151.4316°E)
Time: 23:00:08
(UTC+10:00)

LightSail 2 - Visible Passes

Search period start: 03 August 2020 00:00
Search period end: 13 August 2020 00:00
Orbit: 698 x 714 km, 24.0° (Epoch: 02 August)

Date Brightness Start Highest point End Pass type
(mag) Time Alt. Az. Time Alt. Az. Time Alt. Az.
03 Aug 7.6 06:06:29 10° NNW 06:09:45 17° NNE 06:13:00 10° NE visible
04 Aug 7.6 05:07:13 10° N 05:09:39 13° NNE 05:12:04 10° NE visible
05 Aug 7.2 05:50:22 10° NW 05:54:15 22° NNE 05:58:07 10° ENE visible
06 Aug 7.3 04:51:36 13° NNW 04:54:06 18° NNE 04:57:34 10° ENE visible
07 Aug 7.7 03:55:13 14° NE 03:55:13 14° NE 03:56:45 10° NE visible
07 Aug 6.8 05:34:30 10° NW 05:38:43 26° N 05:42:56 10° ENE visible
08 Aug 6.8 04:37:33 22° N 04:38:32 23° N 04:42:32 10° ENE visible
09 Aug 7.8 03:41:01 14° NE 03:41:01 14° NE 03:42:00 10° ENE visible
09 Aug 6.6 05:19:50 15° NW 05:23:10 28° N 05:27:32 10° ENE visible
10 Aug 6.6 04:23:15 27° NNE 04:23:15 27° NNE 04:27:13 10° ENE visible
10 Aug 6.7 06:03:29 10° WNW 06:07:49 28° N 06:12:08 10° NE visible
11 Aug 8.0 03:26:37 11° ENE 03:26:37 11° ENE 03:26:49 10° ENE visible
11 Aug 6.5 05:05:25 21° NW 05:07:35 29° N 05:11:58 10° ENE visible
12 Aug 6.8 04:08:46 25° NNE 04:08:46 25° NNE 04:11:44 10° ENE visible
12 Aug 6.7 05:48:05 10° WNW 05:52:11 24° N 05:56:17 10° NE visible
